Madison, MN

9:38 PM CDT on October 18, 2019 (GMT -0500)
Madison-Lac Qui Parle County

Weather History for KDXX - August, 2019

Change the Weather History Date:

Tuesday, August 20, 2019

  Actual Average (KAQP) Record (KAQP)
Temperature  
Mean Temperature 73 °F -  
Max Temperature 82 °F 77 °F 93 °F (2013)
Min Temperature 64 °F 55 °F 33 °F (2006)
Cooling Degree Days 8    
Growing Degree Days 23 (Base 50)    
Moisture  
Dew Point 70 °F    
Average Humidity 84    
Maximum Humidity 100    
Minimum Humidity 66    
Precipitation  
Precipitation 0.00 in - - ()
Sea Level Pressure  
Sea Level Pressure 29.96 in    
Wind  
Wind Speed 8 mph (NNW)    
Max Wind Speed 18 mph    
Max Gust Speed 22 mph    
Visibility 10 miles    
Events      
Averages and records for this station are not official NWS values.
T = Trace of Precipitation, MM = Missing Value Source: NWS Daily Summary

Daily Weather History Graph

Daily Weather History Graph

Search for Another Location

Airport or City:

Astronomy

Aug. 20, 2019 Rise Set
Actual Time 6:32 AM CDT 8:23 PM CDT
Civil Twilight 6:00 AM CDT 8:54 PM CDT
Nautical Twilight 5:22 AM CDT 9:32 PM CDT
Astronomical Twilight 4:40 AM CDT 10:14 PM CDT
Moon 10:59 PM CDT (8/20) 11:22 AM CDT (8/20)
Length of Visible Light 14h 53m
Length of Day
13h 50m
Waning Gibbous, 77% of the Moon is Illuminated
Aug 20
Waning Gibbous
Aug 23
Last Quarter
Aug 30
New
Sep 5
First Quarter
Sep 13
Full

Hourly Weather History & Observations

Time (CDT) Temp. Heat Index Dew Point Humidity Pressure Visibility Wind Dir Wind Speed Gust Speed Precip Events Conditions
12:15 AM 71.6 °F - 69.8 °F 94% 29.92 in 10.0 mi SE 6.9 mph - N/A   Scattered Clouds
12:16 AM 71.6 °F - 69.8 °F 94% 29.92 in 10.0 mi SE 6.9 mph - N/A   Scattered Clouds
12:35 AM 71.6 °F - 69.8 °F 94% 29.92 in 10.0 mi SSE 6.9 mph - N/A   Mostly Cloudy
12:36 AM 71.6 °F - 69.8 °F 94% 29.92 in 10.0 mi SSE 6.9 mph - N/A   Mostly Cloudy
12:59 AM 73.4 °F - 69.8 °F 88% 29.92 in 10.0 mi SE 6.9 mph - N/A   Mostly Cloudy
1:16 AM 71.6 °F - 69.8 °F 94% 29.91 in 10.0 mi SE 6.9 mph - N/A   Scattered Clouds
1:56 AM 73.4 °F - 71.6 °F 94% 29.90 in 10.0 mi SSE 8.1 mph - N/A   Mostly Cloudy
2:15 AM 73.4 °F - 71.6 °F 94% 29.89 in 10.0 mi SSE 8.1 mph - N/A   Mostly Cloudy
2:38 AM 73.4 °F - 69.8 °F 88% 29.88 in 10.0 mi SSE 6.9 mph - N/A   Scattered Clouds
2:55 AM 71.6 °F - 69.8 °F 94% 29.87 in 10.0 mi SSE 6.9 mph - N/A   Clear
3:15 AM 71.6 °F - 69.8 °F 94% 29.87 in 10.0 mi SSE 5.8 mph - N/A   Clear
3:16 AM 71.6 °F - 69.8 °F 94% 29.87 in 10.0 mi SSE 5.8 mph - N/A   Clear
3:35 AM 71.6 °F - 69.8 °F 94% 29.86 in 10.0 mi SSE 4.6 mph - N/A   Clear
3:58 AM 71.6 °F - 69.8 °F 94% 29.86 in 10.0 mi SE 4.6 mph - N/A   Clear
4:16 AM 71.6 °F - 69.8 °F 94% 29.86 in 10.0 mi SSE 3.5 mph - N/A   Clear
4:36 AM 71.6 °F - 69.8 °F 94% 29.85 in 7.0 mi SSE 3.5 mph - N/A   Clear
4:55 AM 71.6 °F - 69.8 °F 94% 29.84 in 10.0 mi SE 5.8 mph - N/A   Scattered Clouds
4:56 AM 71.6 °F - 69.8 °F 94% 29.84 in 10.0 mi SE 4.6 mph - N/A   Scattered Clouds
5:15 AM 71.6 °F - 69.8 °F 94% 29.84 in 7.0 mi SE 4.6 mph - N/A   Scattered Clouds
5:20 AM 71.6 °F - 69.8 °F 94% 29.84 in 10.0 mi SSE 4.6 mph - N/A   Clear
5:37 AM 69.8 °F - 69.8 °F 100% 29.84 in 7.0 mi SSE 5.8 mph - N/A   Clear
5:55 AM 69.8 °F - 69.8 °F 100% 29.84 in 7.0 mi SE 3.5 mph - N/A   Clear
6:15 AM 71.6 °F - 69.8 °F 94% 29.85 in 7.0 mi SE 3.5 mph - N/A   Mostly Cloudy
6:16 AM 71.6 °F - 69.8 °F 94% 29.85 in 10.0 mi SE 3.5 mph - N/A   Mostly Cloudy
6:35 AM 71.6 °F - 69.8 °F 94% 29.86 in 7.0 mi East 3.5 mph - N/A   Overcast
6:36 AM 71.6 °F - 69.8 °F 94% 29.86 in 7.0 mi ESE 3.5 mph - N/A   Overcast
6:59 AM 71.6 °F - 71.6 °F 100% 29.87 in 10.0 mi SE 4.6 mph - N/A   Overcast
7:16 AM 71.6 °F - 71.6 °F 100% 29.87 in 10.0 mi SSE 5.8 mph - N/A   Overcast
7:36 AM 73.4 °F - 71.6 °F 94% 29.88 in 10.0 mi South 5.8 mph - N/A   Overcast
7:55 AM 73.4 °F - 71.6 °F 94% 29.90 in 10.0 mi South 4.6 mph - N/A   Overcast
8:15 AM 73.4 °F - 71.6 °F 94% 29.90 in 10.0 mi South 4.6 mph - N/A   Overcast
8:19 AM 73.4 °F - 71.6 °F 94% 29.90 in 10.0 mi South 5.8 mph - N/A   Overcast
8:37 AM 75.2 °F - 71.6 °F 89% 29.91 in 10.0 mi SSW 5.8 mph - N/A   Mostly Cloudy
8:56 AM 75.2 °F - 73.4 °F 94% 29.92 in 7.0 mi SSW 5.8 mph - N/A   Light Drizzle
9:15 AM 75.2 °F - 73.4 °F 94% 29.93 in 10.0 mi SW 5.8 mph - N/A   Overcast
9:16 AM 75.2 °F - 73.4 °F 94% 29.93 in 10.0 mi SW 5.8 mph - N/A   Overcast
9:35 AM 77.0 °F - 75.2 °F 94% 29.93 in 10.0 mi SW 4.6 mph - N/A   Overcast
9:36 AM 77.0 °F - 75.2 °F 94% 29.93 in 10.0 mi SW 4.6 mph - N/A   Overcast
9:58 AM 78.8 °F - 75.2 °F 89% 29.94 in 10.0 mi SW 4.6 mph - N/A   Overcast
10:17 AM 78.8 °F - 75.2 °F 89% 29.94 in 10.0 mi Calm Calm - N/A   Overcast
10:36 AM 80.6 °F 86.2 °F 75.2 °F 84% 29.94 in 10.0 mi Calm Calm - N/A   Mostly Cloudy
10:55 AM 80.6 °F 86.2 °F 75.2 °F 84% 29.94 in 10.0 mi NW 6.9 mph - N/A   Mostly Cloudy
10:56 AM 80.6 °F 86.2 °F 75.2 °F 84% 29.94 in 10.0 mi WNW 5.8 mph - N/A   Mostly Cloudy
11:15 AM 80.6 °F 85.4 °F 73.4 °F 79% 29.95 in 10.0 mi NNW 10.4 mph - N/A   Overcast
11:20 AM 80.6 °F 86.2 °F 75.2 °F 84% 29.95 in 10.0 mi NNW 9.2 mph - N/A   Overcast
11:38 AM 80.6 °F 86.2 °F 75.2 °F 84% 29.97 in 10.0 mi NNW 9.2 mph - N/A   Overcast
11:55 AM 80.6 °F 85.4 °F 73.4 °F 79% 29.97 in 10.0 mi NNW 10.4 mph - N/A   Overcast
12:15 PM 80.6 °F 85.4 °F 73.4 °F 79% 29.97 in 10.0 mi NNW 13.8 mph 20.7 mph N/A   Mostly Cloudy
12:16 PM 80.6 °F 85.4 °F 73.4 °F 79% 29.97 in 10.0 mi NNW 13.8 mph 20.7 mph N/A   Scattered Clouds
12:35 PM 82.4 °F 88.2 °F 73.4 °F 74% 29.97 in 10.0 mi NNW 16.1 mph - N/A   Scattered Clouds
12:58 PM 80.6 °F 85.4 °F 73.4 °F 79% 29.98 in 10.0 mi NW 13.8 mph - N/A   Scattered Clouds
1:17 PM 80.6 °F 85.4 °F 73.4 °F 79% 29.98 in 10.0 mi North 12.7 mph - N/A   Scattered Clouds
1:36 PM 80.6 °F 84.6 °F 71.6 °F 74% 29.98 in 10.0 mi North 9.2 mph - N/A   Mostly Cloudy
1:55 PM 80.6 °F 84.6 °F 71.6 °F 74% 29.99 in 10.0 mi NNW 11.5 mph 16.1 mph N/A   Mostly Cloudy
1:56 PM 80.6 °F 84.6 °F 71.6 °F 74% 29.99 in 10.0 mi North 12.7 mph 16.1 mph N/A   Mostly Cloudy
2:15 PM 80.6 °F 85.4 °F 73.4 °F 79% 29.99 in 10.0 mi North 11.5 mph - N/A   Mostly Cloudy
2:37 PM 80.6 °F 85.4 °F 73.4 °F 79% 29.99 in 10.0 mi North 13.8 mph - N/A   Mostly Cloudy
2:56 PM 82.4 °F 87.2 °F 71.6 °F 70% 29.99 in 10.0 mi North 13.8 mph - N/A   Scattered Clouds
3:15 PM 80.6 °F 84.6 °F 71.6 °F 74% 30.00 in 10.0 mi North 15.0 mph - N/A   Scattered Clouds
3:16 PM 80.6 °F 84.6 °F 71.6 °F 74% 30.00 in 10.0 mi North 12.7 mph - N/A   Scattered Clouds
3:35 PM 82.4 °F 86.3 °F 69.8 °F 66% 30.00 in 10.0 mi North 12.7 mph 16.1 mph N/A   Scattered Clouds
3:36 PM 82.4 °F 86.3 °F 69.8 °F 66% 30.00 in 10.0 mi North 10.4 mph 16.1 mph N/A   Scattered Clouds
3:59 PM 82.4 °F 86.3 °F 69.8 °F 66% 29.99 in 10.0 mi North 11.5 mph 19.6 mph N/A   Scattered Clouds
4:16 PM 82.4 °F 86.3 °F 69.8 °F 66% 30.00 in 10.0 mi North 10.4 mph 19.6 mph N/A   Clear
4:36 PM 82.4 °F 86.3 °F 69.8 °F 66% 30.00 in 10.0 mi North 11.5 mph - N/A   Clear
4:55 PM 82.4 °F 86.3 °F 69.8 °F 66% 30.00 in 10.0 mi North 12.7 mph 17.3 mph N/A   Clear
4:56 PM 82.4 °F 86.3 °F 69.8 °F 66% 30.00 in 10.0 mi North 12.7 mph 17.3 mph N/A   Clear
5:15 PM 82.4 °F 86.3 °F 69.8 °F 66% 30.00 in 10.0 mi NNW 11.5 mph - N/A   Clear
5:19 PM 82.4 °F 87.2 °F 71.6 °F 70% 30.00 in 10.0 mi North 15.0 mph 19.6 mph N/A   Clear
5:38 PM 80.6 °F 83.9 °F 69.8 °F 70% 30.01 in 10.0 mi NNW 13.8 mph - N/A   Clear
5:56 PM 78.8 °F - 69.8 °F 74% 30.02 in 10.0 mi NNW 18.4 mph 21.9 mph N/A   Clear
6:15 PM 78.8 °F - 68.0 °F 69% 30.02 in 10.0 mi NNW 16.1 mph - N/A   Clear
6:16 PM 78.8 °F - 68.0 °F 69% 30.02 in 10.0 mi NNW 16.1 mph - N/A   Clear
6:35 PM 77.0 °F - 66.2 °F 69% 30.02 in 10.0 mi North 17.3 mph 21.9 mph N/A   Clear
6:36 PM 77.0 °F - 66.2 °F 69% 30.02 in 10.0 mi North 16.1 mph 21.9 mph N/A   Clear
6:59 PM 77.0 °F - 66.2 °F 69% 30.02 in 10.0 mi NNW 9.2 mph - N/A   Clear
7:16 PM 75.2 °F - 66.2 °F 73% 30.02 in 10.0 mi NNW 12.7 mph 18.4 mph N/A   Clear
7:36 PM 75.2 °F - 66.2 °F 73% 30.03 in 10.0 mi NNW 9.2 mph - N/A   Clear
7:55 PM 73.4 °F - 64.4 °F 73% 30.03 in 10.0 mi North 12.7 mph 16.1 mph N/A   Clear
8:15 PM 73.4 °F - 64.4 °F 73% 30.03 in 10.0 mi NNW 9.2 mph 16.1 mph N/A   Clear
8:19 PM 73.4 °F - 64.4 °F 73% 30.03 in 10.0 mi NNW 10.4 mph 16.1 mph N/A   Clear
8:38 PM 71.6 °F - 64.4 °F 78% 30.04 in 10.0 mi NNW 10.4 mph - N/A   Clear
8:55 PM 71.6 °F - 64.4 °F 78% 30.05 in 10.0 mi NNW 8.1 mph - N/A   Clear
9:15 PM 69.8 °F - 64.4 °F 83% 30.05 in 10.0 mi North 6.9 mph - N/A   Clear
9:16 PM 69.8 °F - 64.4 °F 83% 30.05 in 10.0 mi North 8.1 mph - N/A   Clear
9:35 PM 69.8 °F - 64.4 °F 83% 30.06 in 10.0 mi NNW 8.1 mph - N/A   Clear
9:58 PM 69.8 °F - 62.6 °F 78% 30.07 in 10.0 mi NNW 8.1 mph - N/A   Clear
10:17 PM 69.8 °F - 62.6 °F 78% 30.07 in 10.0 mi North 8.1 mph - N/A   Clear
10:36 PM 68.0 °F - 62.6 °F 83% 30.08 in 10.0 mi NNW 5.8 mph - N/A   Clear
10:55 PM 66.2 °F - 62.6 °F 88% 30.09 in 10.0 mi WNW 4.6 mph - N/A   Clear
10:56 PM 66.2 °F - 62.6 °F 88% 30.09 in 10.0 mi WNW 4.6 mph - N/A   Clear
11:15 PM 64.4 °F - 62.6 °F 94% 30.09 in 10.0 mi NW 4.6 mph - N/A   Clear
11:20 PM 64.4 °F - 62.6 °F 94% 30.09 in 10.0 mi NW 4.6 mph - N/A   Clear
11:37 PM 64.4 °F - 62.6 °F 94% 30.10 in 10.0 mi North 5.8 mph - N/A   Clear
11:56 PM 64.4 °F - 60.8 °F 88% 30.10 in 10.0 mi North 8.1 mph - N/A   Clear